GW5109 Weather Reports


time (UTC)temp
C
wind
direction
speed
KPH
gust
KPH
rain 1hr
cm
rain 24hr
cm
rain mn
cm
humidity
%
barometer
mb
20260906110826 18 162 0.0 0.0 0.00 0.00 0.00 99 1017.8
20260906110322 18 237 0.0 0.0 0.00 0.00 0.00 99 1017.5
20260906105821 18 200 0.0 0.0 0.00 0.00 0.00 99 1017.6
20260906105317 18 136 0.0 0.0 0.00 0.00 0.00 99 1017.6
20260906104813 18 157 0.0 0.0 0.00 0.00 0.00 99 1017.7
20260906104311 18 169 0.0 0.0 0.00 0.00 0.00 99 1017.8
20260906103810 18 141 0.0 0.0 0.00 0.00 0.00 99 1017.7
20260906103309 18 117 0.0 0.0 0.00 0.00 0.00 99 1017.5
20260906102805 18 140 0.0 0.0 0.00 0.00 0.00 99 1017.6
20260906102306 18 232 0.0 0.0 0.00 0.00 0.00 99 1017.4
20260906101759 18 232 0.0 0.0 0.00 0.00 0.00 99 1017.4
20260906101253 18 330 0.0 0.0 0.00 0.00 0.00 99 1017.4
20260906100749 18 330 0.0 0.0 0.00 0.00 0.00 99 1017.5
20260906100248 18 288 0.0 1.6 0.00 0.00 0.00 99 1017.0
20260906095744 18 202 0.0 0.0 0.00 0.00 0.00 99 1017.1
20260906095239 18 169 0.0 0.0 0.00 0.00 0.00 99 1017.0
20260906094738 18 169 0.0 0.0 0.00 0.00 0.00 99 1017.1
20260906094233 19 169 0.0 0.0 0.00 0.00 0.00 99 1017.2
20260906093730 19 203 0.0 0.0 0.00 0.00 0.00 99 1016.8
20260906093225 19 203 0.0 0.0 0.00 0.00 0.00 99 1016.5
20260906092721 19 203 0.0 0.0 0.00 0.00 0.00 99 1016.7
20260906092220 19 203 0.0 0.0 0.00 0.00 0.00 99 1016.8
20260906091717 19 203 0.0 0.0 0.00 0.00 0.00 99 1016.8
20260906091213 19 203 0.0 0.0 0.00 0.00 0.00 99 1016.8
20260906090708 19 203 0.0 0.0 0.00 0.00 0.00 99 1016.8
20260906090208 19 203 0.0 0.0 0.00 0.00 0.00 99 1016.7
20260906085707 19 203 0.0 0.0 0.00 0.00 0.00 99 1016.6
20260906085206 18 203 0.0 0.0 0.00 0.00 0.00 99 1016.8
20260906084701 18 203 0.0 0.0 0.00 0.00 0.00 99 1016.7
20260906084154 19 203 0.0 0.0 0.00 0.00 0.00 99 1016.8
20260906083649 18 203 0.0 0.0 0.00 0.00 0.00 99 1017.0
20260906083145 19 203 0.0 0.0 0.00 0.00 0.00 99 1017.0
20260906082640 19 210 0.0 0.0 0.00 0.00 0.00 99 1017.0
20260906082135 19 210 0.0 0.0 0.00 0.00 0.00 99 1016.8
20260906081631 19 244 3.2 3.2 0.00 0.00 0.00 99 1016.8
20260906081126 19 246 1.6 3.2 0.00 0.00 0.00 99 1016.7
20260906080623 19 250 1.6 3.2 0.00 0.00 0.00 99 1016.8
20260906080119 19 252 1.6 1.6 0.00 0.00 0.00 99 1016.7
20260906075618 19 204 0.0 1.6 0.00 0.00 0.00 99 1017.1
20260906075113 18 211 0.0 1.6 0.00 0.00 0.00 99 1017.0
20260906074608 18 268 1.6 3.2 0.00 0.00 0.00 99 1016.8
20260906074107 18 196 0.0 0.0 0.00 0.00 0.00 99 1016.8
20260906073602 18 196 0.0 0.0 0.00 0.00 0.00 99 1016.8
20260906073052 18 196 0.0 0.0 0.00 0.00 0.00 99 1016.6
20260906072547 18 196 0.0 0.0 0.00 0.00 0.00 99 1016.7
20260906072043 18 196 0.0 0.0 0.00 0.00 0.00 99 1016.8
20260906071539 18 196 0.0 0.0 0.00 0.00 0.00 99 1017.0
20260906071033 18 196 0.0 0.0 0.00 0.00 0.00 99 1017.0
20260906070531 18 181 0.0 0.0 0.00 0.00 0.00 99 1017.1
20260906070026 18 223 0.0 0.0 0.00 0.00 0.00 99 1017.2
20260906065525 18 215 0.0 0.0 0.00 0.00 0.00 99 1017.2
20260906065021 18 215 0.0 0.0 0.00 0.00 0.00 99 1017.0
20260906064517 18 215 0.0 0.0 0.00 0.00 0.00 99 1017.2
20260906064016 18 186 0.0 0.0 0.00 0.00 0.00 99 1017.2
20260906063512 18 192 0.0 0.0 0.00 0.00 0.00 99 1017.2
20260906063008 18 192 0.0 0.0 0.00 0.00 0.00 99 1017.2
20260906062502 18 191 0.0 0.0 0.00 0.00 0.00 99 1017.3
20260906061957 18 191 0.0 0.0 0.00 0.00 0.00 99 1017.5
20260906061454 18 191 0.0 0.0 0.00 0.00 0.00 99 1017.2
20260906060953 18 191 0.0 0.0 0.00 0.00 0.00 99 1017.4
20260906060450 18 198 0.0 0.0 0.00 0.00 0.00 99 1017.5
20260906055946 18 209 0.0 0.0 0.00 0.00 0.00 99 1017.6
20260906055442 18 209 0.0 0.0 0.00 0.00 0.00 99 1017.6
20260906054937 18 209 0.0 0.0 0.00 0.00 0.00 99 1017.5
20260906054432 18 209 0.0 0.0 0.00 0.00 0.00 99 1017.7
20260906053928 18 209 0.0 0.0 0.00 0.00 0.00 99 1017.5
20260906053424 18 223 0.0 0.0 0.00 0.00 0.00 99 1017.5
20260906052919 18 223 0.0 0.0 0.00 0.00 0.00 98 1017.7
20260906052415 18 223 0.0 0.0 0.00 0.00 0.00 98 1017.4
20260906051912 18 223 0.0 0.0 0.00 0.00 0.00 98 1017.4
20260906051412 18 223 0.0 0.0 0.00 0.00 0.00 98 1017.5
20260906050909 18 211 0.0 0.0 0.00 0.00 0.00 98 1017.5
20260906050408 18 211 0.0 0.0 0.00 0.00 0.00 98 1017.4
20260906045907 18 211 0.0 0.0 0.00 0.00 0.00 98 1017.5
20260906045406 18 211 0.0 0.0 0.00 0.00 0.00 97 1017.6
20260906044903 18 211 0.0 0.0 0.00 0.00 0.00 97 1017.4
20260906044402 19 211 0.0 0.0 0.00 0.00 0.00 97 1017.4
20260906043858 19 198 0.0 0.0 0.00 0.00 0.00 97 1017.5
20260906043354 19 198 0.0 0.0 0.00 0.00 0.00 97 1017.5
20260906042849 19 198 0.0 0.0 0.00 0.00 0.00 96 1017.4
20260906042348 19 198 0.0 0.0 0.00 0.00 0.00 96 1017.6
20260906041844 19 193 0.0 0.0 0.00 0.00 0.00 96 1017.7
20260906041339 19 118 0.0 0.0 0.00 0.00 0.00 96 1017.8
20260906040839 20 137 0.0 1.6 0.00 0.00 0.00 95 1017.7
20260906040335 20 136 1.6 1.6 0.00 0.00 0.00 94 1017.7
20260906035830 20 136 0.0 1.6 0.00 0.00 0.00 93 1017.7
20260906035325 20 219 0.0 1.6 0.00 0.00 0.00 93 1017.9
20260906034821 20 216 0.0 0.0 0.00 0.00 0.00 92 1017.6
20260906034321 20 193 1.6 3.2 0.00 0.00 0.00 91 1017.5
20260906033817 21 252 0.0 3.2 0.00 0.00 0.00 91 1017.7
20260906033315 21 223 1.6 11.3 0.00 0.00 0.00 90 1017.8
20260906032812 21 226 4.8 6.4 0.00 0.00 0.00 90 1017.7
20260906032307 21 234 3.2 6.4 0.00 0.00 0.00 90 1017.7
20260906031803 21 246 1.6 4.8 0.00 0.00 0.00 90 1017.8
20260906031258 20 256 3.2 3.2 0.00 0.00 0.00 91 1017.8
20260906030758 20 242 1.6 4.8 0.00 0.00 0.00 92 1017.9
20260906030253 20 245 1.6 3.2 0.00 0.00 0.00 94 1017.8
20260906025753 20 242 1.6 1.6 0.00 0.00 0.00 96 1017.8
20260906025247 20 139 0.0 0.0 0.00 0.00 0.00 96 1018.0
20260906024746 20 138 0.0 0.0 0.00 0.00 0.00 95 1017.9
20260906024245 20 138 0.0 0.0 0.00 0.00 0.00 95 1018.0
20260906023741 20 145 0.0 0.0 0.00 0.00 0.00 95 1018.2
20260906023236 20 145 0.0 0.0 0.00 0.00 0.00 95 1018.1
20260906022732 20 143 0.0 0.0 0.00 0.00 0.00 94 1018.1
20260906022227 20 142 0.0 0.0 0.00 0.00 0.00 94 1018.2
20260906021723 20 143 0.0 1.6 0.00 0.00 0.00 94 1017.8
20260906021221 20 137 0.0 1.6 0.00 0.00 0.00 93 1018.0
20260906020716 20 136 1.6 1.6 0.00 0.00 0.00 92 1018.0
20260906020211 21 149 0.0 1.6 0.00 0.00 0.00 91 1018.4
20260906015706 21 154 0.0 1.6 0.00 0.00 0.00 89 1018.2
20260906015205 22 175 0.0 0.0 0.00 0.00 0.00 86 1018.2
20260906014704 22 233 1.6 1.6 0.00 0.00 0.00 85 1017.9
20260906014200 22 225 3.2 4.8 0.00 0.00 0.00 85 1018.0
20260906013656 21 230 1.6 3.2 0.00 0.00 0.00 87 1018.1
20260906013151 21 261 0.0 0.0 0.00 0.00 0.00 88 1018.0
20260906012652 21 218 0.0 0.0 0.00 0.00 0.00 87 1017.6
20260906012151 21 268 0.0 1.6 0.00 0.00 0.00 86 1017.8
20260906011647 21 231 0.0 3.2 0.00 0.00 0.00 86 1017.7
20260906011142 21 214 0.0 1.6 0.00 0.00 0.00 86 1017.6
20260906010637 21 229 0.0 1.6 0.00 0.00 0.00 86 1017.3
20260906010134 21 292 6.4 6.4 0.00 0.00 0.00 86 1017.6
20260906005632 21 227 1.6 3.2 0.00 0.00 0.00 86 1017.5
20260906005127 21 227 0.0 1.6 0.00 0.00 0.00 86 1017.6
20260906004626 22 226 0.0 0.0 0.00 0.00 0.00 84 1017.4
20260906004121 22 245 1.6 3.2 0.00 0.00 0.00 83 1017.4
20260906003617 22 260 1.6 4.8 0.00 0.00 0.00 83 1017.3
20260906003112 22 214 0.0 1.6 0.00 0.00 0.00 83 1017.2
20260906002606 22 223 0.0 1.6 0.00 0.00 0.00 84 1017.3
20260906002101 22 211 3.2 3.2 0.00 0.00 0.00 84 1017.3
20260906001551 22 178 0.0 3.2 0.00 0.00 0.00 85 1017.4
20260906001051 22 221 0.0 0.0 0.00 0.00 0.00 83 1017.2
20260906000547 22 216 0.0 1.6 0.00 0.00 0.00 82 1017.3
20260906000042 22 216 0.0 1.6 0.00 0.00 0.00 81 1017.2
20260905235541 23 276 3.2 3.2 0.00 0.00 0.00 81 1017.4
20260905235036 23 220 0.0 1.6 0.00 0.00 0.00 80 1017.1
20260905234532 23 276 0.0 3.2 0.00 0.00 0.00 80 1017.4
20260905234026 23 221 0.0 4.8 0.00 0.00 0.00 79 1017.1
20260905233521 23 212 0.0 4.8 0.00 0.00 0.00 78 1017.0
20260905233021 23 233 3.2 3.2 0.00 0.00 0.00 78 1017.1
20260905232516 24 209 1.6 4.8 0.00 0.00 0.00 77 1016.8
20260905232012 24 238 1.6 3.2 0.00 0.00 0.00 77 1017.1
20260905231507 24 212 1.6 11.3 0.00 0.00 0.00 75 1017.1
20260905231003 25 222 1.6 1.6 0.00 0.00 0.00 77 1017.2
20260905230502 25 334 0.0 4.8 0.00 0.00 0.00 75 1017.1
20260905230000 25 228 1.6 3.2 0.00 0.00 0.00 75 1017.4
20260905225455 25 224 0.0 1.6 0.00 0.00 0.00 73 1017.0
20260905224951 25 254 1.6 4.8 0.00 0.00 0.00 73 1017.4
20260905224446 25 198 0.0 4.8 0.00 0.00 0.00 73 1017.1
20260905223945 25 12 3.2 9.7 0.00 0.00 0.00 72 1017.1
20260905223443 25 331 1.6 4.8 0.00 0.00 0.00 71 1017.2
20260905222938 25 19 0.0 3.2 0.00 0.00 0.00 71 1017.3
20260905222437 25 268 1.6 1.6 0.00 0.00 0.00 71 1017.3
20260905221933 25 27 3.2 9.7 0.00 0.00 0.00 71 1017.2
20260905221429 26 274 1.6 9.7 0.00 0.00 0.00 70 1017.3
20260905220926 26 355 9.7 22.5 0.00 0.00 0.00 67 1016.8
20260905220421 26 7 8.0 12.9 0.00 0.00 0.00 67 1016.8
20260905215920 26 222 3.2 4.8 0.00 0.00 0.00 66 1017.0
20260905215416 27 350 4.8 9.7 0.00 0.00 0.00 65 1016.6
20260905214912 27 184 0.0 1.6 0.00 0.00 0.00 69 1016.6
20260905214408 27 283 6.4 6.4 0.00 0.00 0.00 65 1016.6
20260905213908 27 326 4.8 4.8 0.00 0.00 0.00 65 1016.7
20260905213404 28 309 6.4 9.7 0.00 0.00 0.00 63 1016.5
20260905212859 27 303 1.6 9.7 0.00 0.00 0.00 65 1016.5
20260905212354 27 81 1.6 6.4 0.00 0.00 0.00 65 1016.4
20260905211853 28 338 4.8 6.4 0.00 0.00 0.00 63 1016.3
20260905211349 28 13 1.6 1.6 0.00 0.00 0.00 62 1016.4
20260905210845 27 328 4.8 6.4 0.00 0.00 0.00 62 1016.5
20260905210345 28 253 3.2 9.7 0.00 0.00 0.00 63 1016.4
20260905205839 28 214 0.0 3.2 0.00 0.00 0.00 63 1016.5
20260905205339 27 234 1.6 4.8 0.00 0.00 0.00 65 1016.4
20260905204833 28 256 1.6 9.7 0.00 0.00 0.00 63 1016.4
20260905204329 28 328 9.7 12.9 0.00 0.00 0.00 61 1016.4
20260905203827 28 243 4.8 16.1 0.00 0.00 0.00 61 1016.4
20260905203324 27 196 1.6 6.4 0.00 0.00 0.00 65 1016.3
20260905202819 27 317 6.4 9.7 0.00 0.00 0.00 62 1016.3
20260905202314 27 302 6.4 9.7 0.00 0.00 0.00 65 1016.3
20260905201809 27 22 3.2 12.9 0.00 0.00 0.00 69 1016.4
20260905201304 27 339 3.2 9.7 0.00 0.00 0.00 66 1016.6
20260905200759 27 123 4.8 9.7 0.00 0.00 0.00 65 1016.5
20260905200255 28 250 4.8 9.7 0.00 0.00 0.00 66 1016.7
20260905195752 27 243 3.2 9.7 0.00 0.00 0.00 69 1016.5
20260905195248 27 71 1.6 4.8 0.00 0.00 0.00 68 1016.4
20260905194744 26 309 4.8 9.7 0.00 0.00 0.00 69 1016.5
20260905194243 27 354 3.2 9.7 0.00 0.00 0.00 67 1016.5
20260905193742 27 41 4.8 9.7 0.00 0.00 0.00 66 1016.7
20260905193238 27 349 4.8 9.7 0.00 0.00 0.00 69 1016.8
20260905192733 27 223 6.4 9.7 0.00 0.00 0.00 65 1016.8
20260905192230 27 341 4.8 9.7 0.00 0.00 0.00 69 1016.8
20260905191729 27 193 0.0 9.7 0.00 0.00 0.00 68 1016.8
20260905191226 28 213 3.2 4.8 0.00 0.00 0.00 68 1017.1
20260905190726 27 248 1.6 6.4 0.00 0.00 0.00 69 1017.2
20260905190224 27 230 3.2 6.4 0.00 0.00 0.00 70 1017.3
20260905185723 26 34 1.6 6.4 0.00 0.00 0.00 71 1017.3
20260905185218 27 352 4.8 4.8 0.00 0.00 0.00 68 1017.3
20260905184713 27 203 1.6 4.8 0.00 0.00 0.00 69 1017.5
20260905184212 27 238 4.8 4.8 0.00 0.00 0.00 72 1017.5
20260905183711 26 249 4.8 6.4 0.00 0.00 0.00 71 1017.6
20260905183207 26 336 6.4 9.7 0.00 0.00 0.00 74 1017.7
20260905182706 26 328 3.2 11.3 0.00 0.00 0.00 77 1017.8
20260905182206 25 239 3.2 9.7 0.00 0.00 0.00 81 1017.9
20260905181702 25 289 3.2 6.4 0.00 0.00 0.00 79 1017.8
20260905181200 26 207 1.6 3.2 0.00 0.00 0.00 81 1017.9
20260905180655 25 280 1.6 4.8 0.00 0.00 0.00 81 1018.1
20260905180151 25 330 3.2 3.2 0.00 0.00 0.00 82 1018.1
20260905175649 25 177 1.6 4.8 0.00 0.00 0.00 84 1018.0
20260905175145 24 191 0.0 9.7 0.00 0.00 0.00 86 1018.1
20260905174641 24 317 3.2 4.8 0.00 0.00 0.00 86 1018.4
20260905174136 24 346 6.4 6.4 0.00 0.00 0.00 83 1018.0
20260905173632 24 357 8.0 11.3 0.00 0.00 0.00 83 1018.2
20260905173128 24 304 4.8 4.8 0.00 0.00 0.00 84 1018.1
20260905172626 23 235 4.8 6.4 0.00 0.00 0.00 85 1018.0
20260905172121 23 256 6.4 20.9 0.00 0.00 0.00 87 1018.5
20260905171618 23 222 3.2 4.8 0.00 0.00 0.00 87 1018.1
20260905171113 23 185 3.2 6.4 0.00 0.00 0.00 88 1018.1
20260905170610 23 235 3.2 11.3 0.00 0.00 0.00 88 1018.4
20260905170105 23 194 9.7 12.9 0.00 0.00 0.00 88 1018.1
20260905165559 22 218 9.7 11.3 0.00 0.00 0.00 89 1018.0
20260905165054 22 182 6.4 12.9 0.00 0.00 0.00 91 1018.2
20260905164550 22 236 6.4 12.9 0.00 0.00 0.00 92 1018.1
20260905164049 22 211 6.4 12.9 0.00 0.00 0.00 92 1018.2
20260905163546 21 230 4.8 9.7 0.00 0.00 0.00 92 1018.6
20260905163042 22 234 4.8 9.7 0.00 0.00 0.00 92 1018.8
20260905162538 22 198 1.6 6.4 0.00 0.00 0.00 92 1019.0
20260905162032 22 277 0.0 1.6 0.00 0.00 0.00 93 1019.0
20260905161531 22 175 1.6 3.2 0.00 0.00 0.00 93 1019.4
20260905161029 21 168 4.8 6.4 0.00 0.00 0.00 93 1019.5
20260905160528 21 131 1.6 3.2 0.00 0.00 0.00 93 1019.8
20260905160028 21 108 0.0 0.0 0.00 0.00 0.00 93 1020.0
20260905155528 21 67 0.0 1.6 0.00 0.00 0.00 93 1020.0
20260905155026 21 89 0.0 0.0 0.00 0.00 0.00 94 1020.2
20260905154522 21 98 1.6 4.8 0.00 0.00 0.00 93 1020.2
20260905154018 21 78 3.2 3.2 0.00 0.00 0.00 93 1020.2
20260905153514 21 64 3.2 4.8 0.00 0.00 0.00 92 1020.2
20260905153013 22 90 3.2 6.4 0.00 0.00 0.00 91 1020.4
20260905152513 22 148 0.0 4.8 0.00 0.00 0.00 92 1020.4
20260905152008 21 225 0.0 3.2 0.00 0.00 0.00 94 1020.4
20260905151504 21 185 0.0 0.0 0.00 0.00 0.00 97 1020.4
20260905150959 20 206 0.0 1.6 0.00 0.00 0.00 97 1020.3
20260905150454 20 211 0.0 1.6 0.00 0.00 0.00 97 1020.3
20260905145950 20 200 0.0 1.6 0.00 0.00 0.00 97 1020.3
20260905145445 20 353 3.2 3.2 0.00 0.00 0.00 97 1020.3
20260905144944 19 205 0.0 4.8 0.00 0.00 0.00 96 1020.1
20260905144440 19 229 1.6 9.7 0.00 0.00 0.00 96 1020.3
20260905143939 20 267 12.9 16.1 0.00 0.00 0.00 95 1020.3
20260905143432 21 8 11.3 16.1 0.00 0.00 0.00 91 1020.5
20260905142927 21 304 6.4 22.5 0.00 0.00 0.00 90 1020.3
20260905142426 22 306 11.3 17.7 0.00 0.00 0.00 90 1020.1
20260905141921 22 195 9.7 20.9 0.00 0.00 0.00 90 1020.3
20260905141416 23 319 1.6 4.8 0.00 0.00 0.00 88 1019.1
20260905140913 23 256 6.4 11.3 0.00 0.00 0.00 88 1019.2
20260905140408 23 240 1.6 4.8 0.00 0.00 0.00 88 1019.0
20260905135906 23 198 1.6 4.8 0.00 0.00 0.00 88 1019.2
20260905135402 23 281 3.2 6.4 0.00 0.00 0.00 88 1019.1
20260905134857 23 245 6.4 9.7 0.00 0.00 0.00 87 1019.1
20260905134356 23 192 8.0 11.3 0.00 0.00 0.00 87 1019.2
20260905133850 23 215 3.2 4.8 0.00 0.00 0.00 87 1019.2
20260905133346 23 274 4.8 9.7 0.00 0.00 0.00 86 1019.1
20260905132844 23 232 1.6 4.8 0.00 0.00 0.00 85 1019.1
20260905132340 24 277 8.0 11.3 0.00 0.00 0.00 84 1019.2
20260905131835 24 292 3.2 9.7 0.00 0.00 0.00 84 1019.1
20260905131330 24 261 9.7 11.3 0.00 0.00 0.00 84 1019.0
20260905130826 24 197 6.4 9.7 0.00 0.00 0.00 83 1019.1
20260905130324 24 260 9.7 12.9 0.00 0.00 0.00 83 1018.9
20260905125820 23 201 6.4 14.5 0.00 0.00 0.00 84 1019.0
20260905125315 23 248 4.8 11.3 0.00 0.00 0.00 84 1019.0
20260905124811 23 317 3.2 4.8 0.00 0.00 0.00 84 1019.0
20260905124307 23 241 1.6 6.4 0.00 0.00 0.00 84 1019.1
20260905123801 23 215 6.4 9.7 0.00 0.00 0.00 83 1019.1
20260905123259 23 265 6.4 9.7 0.00 0.00 0.00 82 1019.2
20260905122758 23 238 4.8 6.4 0.00 0.00 0.00 83 1019.1
20260905122257 23 241 8.0 11.3 0.00 0.00 0.00 83 1018.9
20260905121753 23 270 4.8 9.7 0.00 0.00 0.00 84 1018.9
20260905121249 23 245 6.4 9.7 0.00 0.00 0.00 85 1018.8
20260905120747 22 252 4.8 9.7 0.00 0.00 0.00 86 1018.9
20260905120242 22 235 8.0 9.7 0.00 0.00 0.00 88 1018.7
20260905115737 22 245 3.2 6.4 0.00 0.00 0.00 87 1018.9
20260905115237 22 212 3.2 9.7 0.00 0.00 0.00 87 1018.7
20260905114732 22 251 3.2 6.4 0.00 0.00 0.00 87 1018.8
20260905114230 21 234 1.6 4.8 0.00 0.00 0.00 88 1018.7
20260905113729 21 274 6.4 12.9 0.00 0.00 0.00 89 1018.8
20260905113225 21 238 6.4 11.3 0.00 0.00 0.00 89 1018.5
20260905112725 21 303 3.2 11.3 0.00 0.00 0.00 90 1018.9
20260905112221 21 237 3.2 12.9 0.00 0.00 0.00 90 1018.6
20260905111720 21 238 8.0 14.5 0.00 0.00 0.00 89 1018.7